User: anonymous   Login
Location: ??
(35.5052°N, 139.7262°E)
Time: 09:22:49
(UTC+00:00)
Language:

Cosmos 1603 - Orbit

View from above orbital plane
View from above orbital plane
View from above satellite
View from above satellite

Ground track
Ground track

The orbit data is extracted from the following two-line orbital elements,

1 15333U 84106A   21264.71801196  .00000212  00000-0  13614-3 0  9995
2 15333  71.0236  70.7536 0019896 350.2435   9.8298 14.14119500908200
Epoch (UTC): 21 September 2021 17:13:56
Eccentricity: 0.0019896
inclination: 71.0236°
perigee height: 831 km
apogee height: 859 km
right ascension of ascending node: 70.7536°
argument of perigee: 350.2435°
revolutions per day: 14.14119500
mean anomaly at epoch: 9.8298°
orbit number at epoch: 90820

The dashed part of the orbit path shows where the satellite is in the earth's shadow,  

DLR